CW8095 Weather Reports


Display with metric or nautical units.
time (UTC)temp
F
wind
direction
speed
MPH
gust
MPH
rain 1hr
in
rain 24hr
in
rain mn
in
humidity
%
barometer
mb
20260509232543 98 127 2.0 4.0 0.00 0.00 0.00 30 1007.9
20260509231519 98 128 2.0 4.0 0.00 0.00 0.00 30 1007.8
20260509230530 99 120 3.0 8.0 0.00 0.00 0.00 29 1007.9
20260509225526 99 88 2.0 4.0 0.00 0.00 0.00 30 1007.9
20260509224521 99 70 3.0 6.0 0.00 0.00 0.00 30 1007.9
20260509223517 98 77 3.0 6.0 0.00 0.00 0.00 31 1007.8
20260509222528 99 93 3.0 7.0 0.00 0.00 0.00 29 1007.9
20260509221524 99 79 3.0 7.0 0.00 0.00 0.00 30 1007.9
20260509220519 98 87 2.0 6.0 0.00 0.00 0.00 30 1007.9
20260509215530 98 60 3.0 8.0 0.00 0.00 0.00 31 1007.9
20260509214526 97 148 1.0 4.0 0.00 0.00 0.00 32 1008.1
20260509213521 97 120 3.0 7.0 0.00 0.00 0.00 31 1008.2
20260509212517 97 57 3.0 8.0 0.00 0.00 0.00 31 1008.2
20260509211528 97 124 3.0 8.0 0.00 0.00 0.00 31 1008.4
20260509210523 97 87 4.0 9.0 0.00 0.00 0.00 31 1008.5
20260509205519 98 121 3.0 8.0 0.00 0.00 0.00 31 1008.6
20260509204530 98 107 4.0 9.0 0.00 0.00 0.00 31 1008.9
20260509203526 97 64 2.0 6.0 0.00 0.07 0.00 31 1008.9
20260509202522 97 148 1.0 6.0 0.00 0.13 0.00 30 1009.0
20260509201517 97 93 2.0 7.0 0.00 0.17 0.00 31 1009.2
20260509200648 97 67 2.0 6.0 0.00 0.17 0.00 32 1009.2
20260509195544 97 267 2.0 3.0 0.00 0.17 0.00 32 1009.3
20260509194519 96 14 2.0 7.0 0.00 0.17 0.00 34 1009.5
20260509193529 96 128 1.0 3.0 0.00 0.17 0.00 31 1009.6
20260509192525 96 226 2.0 6.0 0.00 0.17 0.00 33 1009.6
20260509191521 96 135 2.0 9.0 0.00 0.17 0.00 33 1009.6
20260509190516 96 265 2.0 6.0 0.00 0.17 0.00 34 1009.7
20260509185527 95 258 2.0 6.0 0.00 0.17 0.00 35 1009.9
20260509184522 94 253 3.0 7.0 0.00 0.17 0.00 35 1010.0
20260509183518 94 235 3.0 7.0 0.00 0.17 0.00 34 1010.0
20260509182529 95 263 3.0 7.0 0.00 0.17 0.00 35 1010.0
20260509181525 94 273 2.0 6.0 0.00 0.17 0.00 37 1010.1
20260509180520 93 254 3.0 6.0 0.00 0.17 0.00 37 1010.3
20260509175515 93 258 4.0 9.0 0.00 0.17 0.00 37 1010.3
20260509174526 92 252 4.0 9.0 0.00 0.17 0.00 37 1010.5
20260509173522 92 259 3.0 9.0 0.00 0.17 0.00 38 1010.6
20260509172518 91 283 4.0 9.0 0.00 0.17 0.00 40 1010.7
20260509171528 91 262 3.0 10.0 0.00 0.17 0.00 39 1010.8
20260509170524 91 268 4.0 10.0 0.00 0.17 0.00 40 1010.8
20260509165540 91 269 5.0 10.0 0.00 0.17 0.00 40 1010.9
20260509164555 91 264 4.0 9.0 0.00 0.17 0.00 41 1010.9
20260509163526 90 277 2.0 7.0 0.00 0.17 0.00 41 1011.0
20260509162522 90 259 4.0 10.0 0.00 0.17 0.00 40 1010.9
20260509161518 89 264 4.0 9.0 0.00 0.17 0.00 41 1010.8
20260509160529 89 256 4.0 10.0 0.00 0.17 0.00 40 1010.8
20260509155525 88 239 4.0 9.0 0.00 0.17 0.00 42 1010.9
20260509154520 87 263 5.0 10.0 0.00 0.17 0.00 43 1010.9
20260509153516 87 262 4.0 10.0 0.00 0.17 0.00 44 1010.8
20260509152527 87 265 5.0 10.0 0.00 0.17 0.00 45 1010.8
20260509151523 86 287 3.0 7.0 0.00 0.17 0.00 48 1010.6
20260509150519 86 270 3.0 9.0 0.00 0.17 0.00 51 1010.7
20260509145530 85 278 2.0 8.0 0.00 0.17 0.00 52 1010.7
20260509144525 85 267 2.0 6.0 0.00 0.17 0.00 54 1010.9
20260509143520 85 260 2.0 7.0 0.00 0.17 0.00 53 1010.9
20260509142516 87 224 1.0 4.0 0.00 0.17 0.00 50 1011.0
20260509141527 92 255 1.0 4.0 0.00 0.17 0.00 45 1011.1
20260509140523 92 280 3.0 7.0 0.00 0.17 0.00 44 1011.0
20260509135538 96 270 3.0 8.0 0.00 0.17 0.00 40 1011.0
20260509134529 93 258 2.0 6.0 0.00 0.17 0.00 45 1010.8
20260509133525 91 272 2.0 4.0 0.00 0.17 0.00 49 1010.7
20260509132521 87 255 3.0 6.0 0.00 0.17 0.00 52 1010.6
20260509131537 87 266 4.0 9.0 0.00 0.17 0.00 54 1010.6
20260509130528 81 269 3.0 9.0 0.00 0.17 0.00 65 1010.5
20260509125604 76 267 1.0 2.0 0.00 0.17 0.00 75 1010.4
20260509124519 72 264 2.0 4.0 0.00 0.17 0.00 83 1010.4
20260509123515 71 238 1.0 2.0 0.00 0.17 0.00 87 1010.4
20260509122526 70 177 0.0 1.0 0.00 0.17 0.00 88 1010.3
20260509121522 69 0.0 0.0 0.00 0.17 0.00 90 1010.1
20260509120517 68 177 0.0 1.0 0.00 0.17 0.00 91 1010.1
20260509115528 68 177 0.0 1.0 0.00 0.17 0.00 90 1010.1
20260509114524 68 175 0.0 1.0 0.00 0.17 0.00 91 1010.1
20260509113540 69 182 0.0 1.0 0.00 0.17 0.00 90 1010.0
20260509112515 69 182 0.0 1.0 0.00 0.17 0.00 88 1010.0
20260509111526 70 262 0.0 2.0 0.00 0.17 0.00 87 1010.0
20260509110521 70 242 2.0 4.0 0.00 0.17 0.00 89 1010.0
20260509105516 70 246 1.0 2.0 0.00 0.17 0.00 89 1010.0
20260509104527 70 265 1.0 2.0 0.00 0.17 0.00 89 1009.8
20260509103522 70 266 2.0 6.0 0.00 0.17 0.00 90 1009.9
20260509102518 70 270 3.0 8.0 0.00 0.17 0.00 91 1009.8
20260509101547 69 260 6.0 11.0 0.00 0.17 0.00 92 1009.5
20260509100543 69 191 1.0 4.0 0.00 0.17 0.00 92 1008.0
20260509095619 69 164 3.0 8.0 0.00 0.17 0.00 92 1007.2
20260509094529 69 163 4.0 13.0 0.00 0.17 0.00 91 1007.3
20260509093604 69 171 5.0 13.0 0.00 0.17 0.00 91 1007.3
20260509092520 69 157 4.0 13.0 0.00 0.17 0.00 91 1007.4
20260509091530 69 185 5.0 13.0 0.00 0.17 0.00 91 1007.4
20260509090525 69 168 4.0 11.0 0.00 0.17 0.00 92 1007.4
20260509085541 69 161 4.0 9.0 0.00 0.17 0.00 91 1007.7
20260509084544 69 160 5.0 14.0 0.00 0.17 0.00 91 1008.0
20260509083519 69 155 4.0 8.0 0.00 0.17 0.00 91 1008.6
20260509082529 69 157 3.0 8.0 0.00 0.17 0.00 91 1008.9
20260509081522 69 161 4.0 11.0 0.00 0.17 0.00 91 1009.3
20260509080518 69 167 4.0 8.0 0.00 0.17 0.00 90 1010.0
20260509075528 69 156 2.0 6.0 0.00 0.17 0.00 90 1010.3
20260509074524 70 163 2.0 4.0 0.00 0.17 0.00 89 1010.8
20260509073525 70 202 1.0 4.0 0.00 0.17 0.00 89 1011.5
20260509072544 70 245 1.0 3.0 0.00 0.17 0.00 89 1011.4
20260509071519 70 239 2.0 3.0 0.00 0.17 0.00 88 1011.4
20260509070537 70 256 2.0 3.0 0.00 0.17 0.00 88 1011.6
20260509065517 70 239 0.0 2.0 0.00 0.17 0.00 89 1011.5
20260509064552 70 166 0.0 1.0 0.00 0.17 0.00 90 1011.4
20260509063529 70 166 0.0 1.0 0.00 0.17 0.00 89 1011.5
20260509062552 69 166 0.0 1.0 0.00 0.17 0.00 89 1011.4
20260509061544 69 176 0.0 2.0 0.00 0.17 0.00 89 1011.3
20260509060532 69 236 0.0 2.0 0.00 0.17 0.00 88 1011.4
20260509055533 69 240 1.0 2.0 0.00 0.17 0.00 88 1011.2
20260509054531 69 121 1.0 2.0 0.00 0.17 0.00 89 1010.9
20260509053531 69 138 0.0 1.0 0.00 0.17 0.00 89 1010.4
20260509052527 69 0.0 0.0 0.00 0.17 0.00 86 1010.7
20260509051552 70 138 0.0 1.0 0.00 0.17 0.00 87 1010.6
20260509050619 70 138 1.0 1.0 0.00 0.17 0.00 87 1010.4
20260509045547 70 138 0.0 1.0 0.00 0.17 0.17 85 1010.4
20260509044621 71 138 0.0 1.0 0.00 0.17 0.17 85 1010.5
20260509043529 71 137 0.0 1.0 0.00 0.17 0.17 83 1011.0
20260509042537 71 138 0.0 1.0 0.00 0.17 0.17 83 1011.0
20260509041527 72 138 0.0 1.0 0.00 0.17 0.17 82 1010.7
20260509040522 72 142 1.0 4.0 0.00 0.17 0.17 83 1010.2
20260509035518 72 150 2.0 6.0 0.00 0.17 0.17 82 1010.1
20260509034531 73 155 2.0 6.0 0.00 0.17 0.17 80 1010.3
20260509033524 73 162 2.0 6.0 0.00 0.17 0.17 80 1010.1
20260509032521 74 147 1.0 3.0 0.00 0.17 0.17 79 1010.0
20260509031517 74 137 0.0 2.0 0.00 0.17 0.17 78 1010.0
20260509030531 74 123 1.0 3.0 0.00 0.17 0.17 78 1009.9
20260509025527 74 161 2.0 7.0 0.00 0.17 0.17 78 1009.3
20260509024522 74 164 2.0 4.0 0.00 0.17 0.17 78 1009.3
20260509023518 74 146 2.0 3.0 0.00 0.17 0.17 77 1009.5
20260509022527 74 149 1.0 3.0 0.00 0.17 0.17 76 1009.4
20260509021523 74 158 1.0 2.0 0.00 0.17 0.17 76 1009.4
20260509020538 74 160 1.0 3.0 0.00 0.17 0.17 76 1009.3
20260509015528 75 152 1.0 3.0 0.00 0.17 0.17 76 1009.2
20260509014523 75 139 0.0 1.0 0.00 0.17 0.17 75 1009.2
20260509013519 75 159 1.0 3.0 0.00 0.17 0.17 74 1009.0
20260509012529 75 139 2.0 4.0 0.00 0.17 0.17 74 1008.9
20260509011524 75 146 2.0 4.0 0.00 0.17 0.17 73 1008.8
20260509010520 76 169 2.0 8.0 0.00 0.17 0.17 74 1008.7
20260509005535 76 148 0.0 1.0 0.00 0.17 0.17 73 1008.7
20260509004545 77 152 1.0 2.0 0.00 0.17 0.17 71 1008.5
20260509003541 77 133 1.0 3.0 0.00 0.17 0.17 70 1008.4
20260509002516 78 111 2.0 3.0 0.00 0.17 0.17 69 1008.4
20260509001607 78 105 2.0 3.0 0.00 0.17 0.17 68 1008.5
20260509000522 78 105 3.0 4.0 0.00 0.17 0.17 68 1008.6
20260508235537 78 133 2.0 7.0 0.00 0.17 0.17 67 1008.6
20260508234528 79 165 2.0 4.0 0.00 0.17 0.17 67 1008.6
20260508233523 79 158 1.0 4.0 0.00 0.17 0.17 66 1008.8